This is the latest recevied weather packets stored in our database for station/object E25RIV-1. If no packets are shown the sender has not sent any weather packets the latest 10 day(s).
| Time | Temp. | Humidity | Pressure | Rain* | Wind** | Luminosity | Snow |
|---|---|---|---|---|---|---|---|
| 1777991744 | 28.33° C | 99% | 1005 hPa | - | - | 0 W/m² | - |
| 1777991120 | 27.78° C | 99% | 1005 hPa | - | - | 0 W/m² | - |
| 1777990495 | 27.78° C | 99% | 1005 hPa | - | - | 0 W/m² | - |
| 1777989871 | 28.33° C | 99% | 1005 hPa | - | - | 0 W/m² | - |
| 1777989247 | 28.33° C | 99% | 1005 hPa | - | - | 0 W/m² | - |
| 1777988623 | 28.33° C | 99% | 1004 hPa | - | - | 0 W/m² | - |
| 1777987999 | 28.33° C | 99% | 1004 hPa | - | - | 0 W/m² | - |
| 1777987376 | 28.33° C | 99% | 1005 hPa | - | - | 0 W/m² | - |
| 1777986751 | 27.78° C | 99% | 1004 hPa | - | - | 0 W/m² | - |
| 1777986127 | 28.33° C | 99% | 1004 hPa | - | - | 0 W/m² | - |
| 1777985503 | 28.33° C | 99% | 1004 hPa | - | - | 0 W/m² | - |
| 1777984879 | 28.33° C | 99% | 1004 hPa | - | - | 0 W/m² | - |
| 1777984255 | 28.89° C | 99% | 1003 hPa | - | - | 0 W/m² | - |
| 1777983631 | 28.89° C | 99% | 1003 hPa | - | - | 0 W/m² | - |
| 1777983007 | 28.89° C | 99% | 1003 hPa | - | - | 0 W/m² | - |
| 1777982383 | 28.89° C | 99% | 1003 hPa | - | - | 0 W/m² | - |
| 1777981759 | 28.89° C | 99% | 1003 hPa | - | - | 0 W/m² | - |
| 1777981151 | 29.44° C | 99% | 1002 hPa | - | - | 0 W/m² | - |
| 1777980511 | 29.44° C | 99% | 1002 hPa | - | - | 0 W/m² | - |
| 1777979887 | 30° C | 99% | 1002 hPa | - | - | 0 W/m² | - |
| 1777979263 | 30.56° C | 99% | 1002 hPa | - | - | 0 W/m² | - |
| 1777978640 | 31.11° C | 99% | 1002 hPa | - | - | 0 W/m² | - |
| 1777978015 | 33.89° C | 78% | 1004 hPa | - | - | 0 W/m² | - |
| 1777977391 | 35° C | 65% | 1002 hPa | - | - | 0 W/m² | - |
| 1777976767 | 36.11° C | 55% | 997 hPa | - | - | 0 W/m² | - |
* Rain since midnight (hover to see other rain measurements)
** Current wind speed in m/s (hover to see current wind gust speed)